Location: Newark
(49.8348°N, 24.0280°E)
Time: 16:13:50
(UTC+00:00)

S-56A Canister/Altair - Pass Details

Date: 02 February 2020
Orbit: 633 x 2499 km, 38.9° (Epoch: 17 February)

Event Time Altitude Azimuth Distance (km) Brightness Sun altitude
Rises 14:15:50 0° 204° (SSW) 5,593 13.2 7.8°
Reaches altitude 10° 14:21:23 10° 188° (S) 4,242 12.1 7.1°
Maximum altitude 14:27:47 18° 152° (SSE) 3,187 10.8 6.3°
Drops below altitude 10° 14:32:59 10° 114° (ESE) 3,325 10.5 5.6°
Sets 14:36:33 0° 95° (E) 3,982 10.7 5.1°
